Location: Kosice
(0.0000°N, 21.2500°E)
Time: 05:47:28
(UTC+01:00)

Aureole 3 - Pass Details

Date: 24 January 2021
Orbit: 381 x 1231 km, 82.5° (Epoch: 04 March)

Event Time Altitude Azimuth Distance (km) Brightness Sun altitude
Rises 18:23:36 0° 350° (N) 2,255 6.4 -8.6°
Reaches altitude 10° 18:25:29 10° 346° (NNW) 1,437 5.4 -9.0°
Maximum altitude 18:28:29 59° 266° (W) 499 3.5 -9.7°
Drops below altitude 10° 18:31:59 10° 185° (S) 1,665 6.1 -10.6°
Sets 18:34:19 0° 181° (S) 2,668 7.1 -11.1°
